Year,Month,Day,Hour,Minute,Value (Times are PST for temperature in C)
2015,07,03,00,00,24.30
2015,07,03,00,01,24.30
2015,07,03,00,02,24.30
2015,07,03,00,03,24.20
2015,07,03,00,04,24.20
2015,07,03,00,05,24.20
2015,07,03,00,06,24.20
2015,07,03,00,07,24.20
2015,07,03,00,08,24.20
2015,07,03,00,09,24.20
2015,07,03,00,10,24.20
2015,07,03,00,11,24.20
2015,07,03,00,12,24.10
2015,07,03,00,13,24.10
2015,07,03,00,14,24.10
2015,07,03,00,15,24.10
2015,07,03,00,16,24.10
2015,07,03,00,17,24.10
2015,07,03,00,18,24.10
2015,07,03,00,19,24.10
2015,07,03,00,20,24.10
2015,07,03,00,21,24.10
2015,07,03,00,22,24.10
2015,07,03,00,23,24.10
2015,07,03,00,24,24.10
2015,07,03,00,25,24.10
2015,07,03,00,26,24.10
2015,07,03,00,27,24.10
2015,07,03,00,28,24.10
2015,07,03,00,29,24.10
2015,07,03,00,30,24.10
2015,07,03,00,31,24.10
2015,07,03,00,32,24.10
2015,07,03,00,33,24.10
2015,07,03,00,34,24.00
2015,07,03,00,35,24.00
2015,07,03,00,36,24.00
2015,07,03,00,37,23.90
2015,07,03,00,38,24.00
2015,07,03,00,39,23.90
2015,07,03,00,40,23.90
2015,07,03,00,41,23.90
2015,07,03,00,42,23.90
2015,07,03,00,43,23.90
2015,07,03,00,44,23.90
2015,07,03,00,45,23.90
2015,07,03,00,46,23.90
2015,07,03,00,47,23.90
2015,07,03,00,48,23.90
2015,07,03,00,49,23.90
2015,07,03,00,50,23.90
2015,07,03,00,51,23.90
2015,07,03,00,52,23.90
2015,07,03,00,53,23.90
2015,07,03,00,54,23.90
2015,07,03,00,55,23.90
2015,07,03,00,56,23.90
2015,07,03,00,57,23.90
2015,07,03,00,58,23.90
2015,07,03,00,59,23.90
2015,07,03,01,00,23.90
2015,07,03,01,01,23.90
2015,07,03,01,02,23.80
2015,07,03,01,03,23.80
2015,07,03,01,04,23.80
2015,07,03,01,05,23.80
2015,07,03,01,06,23.80
2015,07,03,01,07,23.80
2015,07,03,01,08,23.80
2015,07,03,01,09,23.80
2015,07,03,01,10,23.80
2015,07,03,01,11,23.80
2015,07,03,01,12,23.80
2015,07,03,01,13,23.70
2015,07,03,01,14,23.70
2015,07,03,01,15,23.70
2015,07,03,01,16,23.60
2015,07,03,01,17,23.60
2015,07,03,01,18,23.50
2015,07,03,01,19,23.50
2015,07,03,01,20,23.40
2015,07,03,01,21,23.40
2015,07,03,01,22,23.30
2015,07,03,01,23,23.30
2015,07,03,01,24,23.30
2015,07,03,01,25,23.30
2015,07,03,01,26,23.30
2015,07,03,01,27,23.20
2015,07,03,01,28,23.20
2015,07,03,01,29,23.20
2015,07,03,01,30,23.20
2015,07,03,01,31,23.20
2015,07,03,01,32,23.20
2015,07,03,01,33,23.30
2015,07,03,01,34,23.30
2015,07,03,01,35,23.30
2015,07,03,01,36,23.40
2015,07,03,01,37,23.40
2015,07,03,01,38,23.40
2015,07,03,01,39,23.40
2015,07,03,01,40,23.40
2015,07,03,01,41,23.50
2015,07,03,01,42,23.50
2015,07,03,01,43,23.60
2015,07,03,01,44,23.60
2015,07,03,01,45,23.70
2015,07,03,01,46,23.70
2015,07,03,01,47,23.70
2015,07,03,01,48,23.70
2015,07,03,01,49,23.70
2015,07,03,01,50,23.70
2015,07,03,01,51,23.70
2015,07,03,01,52,23.70
2015,07,03,01,53,23.70
2015,07,03,01,54,23.60
2015,07,03,01,55,23.60
2015,07,03,01,56,23.60
2015,07,03,01,57,23.60
2015,07,03,01,58,23.50
2015,07,03,01,59,23.50
2015,07,03,02,00,23.40
2015,07,03,02,01,23.40
2015,07,03,02,02,23.30
2015,07,03,02,03,23.30
2015,07,03,02,04,23.20
2015,07,03,02,05,23.20
2015,07,03,02,06,23.10
2015,07,03,02,07,23.00
2015,07,03,02,08,22.90
2015,07,03,02,09,22.80
2015,07,03,02,10,22.80
2015,07,03,02,11,22.70
2015,07,03,02,12,22.60
2015,07,03,02,13,22.60
2015,07,03,02,14,22.50
2015,07,03,02,15,22.50
2015,07,03,02,16,22.40
2015,07,03,02,17,22.40
2015,07,03,02,18,22.40
2015,07,03,02,19,22.30
2015,07,03,02,20,22.30
2015,07,03,02,21,22.30
2015,07,03,02,22,22.30
2015,07,03,02,23,22.30
2015,07,03,02,24,22.30
2015,07,03,02,25,22.30
2015,07,03,02,26,22.30
2015,07,03,02,27,22.30
2015,07,03,02,28,22.30
2015,07,03,02,29,22.40
2015,07,03,02,30,22.40
2015,07,03,02,31,22.40
2015,07,03,02,32,22.40
2015,07,03,02,33,22.50
2015,07,03,02,34,22.50
2015,07,03,02,35,22.50
2015,07,03,02,36,22.50
2015,07,03,02,37,22.50
2015,07,03,02,38,22.40
2015,07,03,02,39,22.40
2015,07,03,02,40,22.40
2015,07,03,02,41,22.30
2015,07,03,02,42,22.30
2015,07,03,02,43,22.20
2015,07,03,02,44,22.20
2015,07,03,02,45,22.10
2015,07,03,02,46,22.00
2015,07,03,02,47,21.90
2015,07,03,02,48,21.90
2015,07,03,02,49,21.90
2015,07,03,02,50,21.80
2015,07,03,02,51,21.80
2015,07,03,02,52,21.80
2015,07,03,02,53,21.80
2015,07,03,02,54,21.80
2015,07,03,02,55,21.80
2015,07,03,02,56,21.80
2015,07,03,02,57,21.80
2015,07,03,02,58,21.80
2015,07,03,02,59,21.80
2015,07,03,03,00,21.80
2015,07,03,03,01,21.80
2015,07,03,03,02,21.90
2015,07,03,03,03,21.90
2015,07,03,03,04,21.90
2015,07,03,03,05,21.90
2015,07,03,03,06,22.00
2015,07,03,03,07,22.00
2015,07,03,03,08,22.00
2015,07,03,03,09,22.00
2015,07,03,03,10,22.00
2015,07,03,03,11,22.10
2015,07,03,03,12,22.10
2015,07,03,03,13,22.10
2015,07,03,03,14,22.10
2015,07,03,03,15,22.10
2015,07,03,03,16,22.10
2015,07,03,03,17,22.20
2015,07,03,03,18,22.20
2015,07,03,03,19,22.20
2015,07,03,03,20,22.30
2015,07,03,03,21,22.30
2015,07,03,03,22,22.30
2015,07,03,03,23,22.30
2015,07,03,03,24,22.30
2015,07,03,03,25,22.30
2015,07,03,03,26,22.30
2015,07,03,03,27,22.30
2015,07,03,03,28,22.30
2015,07,03,03,29,22.30
2015,07,03,03,30,22.30
2015,07,03,03,31,22.30
2015,07,03,03,32,22.30
2015,07,03,03,33,22.30
2015,07,03,03,34,22.30
2015,07,03,03,35,22.30
2015,07,03,03,36,22.20
2015,07,03,03,37,22.20
2015,07,03,03,38,22.20
2015,07,03,03,39,22.20
2015,07,03,03,40,22.20
2015,07,03,03,41,22.20
2015,07,03,03,42,22.20
2015,07,03,03,43,22.30
2015,07,03,03,44,22.30
2015,07,03,03,45,22.30
2015,07,03,03,46,22.30
2015,07,03,03,47,22.30
2015,07,03,03,48,22.30
2015,07,03,03,49,22.30
2015,07,03,03,50,22.30
2015,07,03,03,51,22.30
2015,07,03,03,52,22.20
2015,07,03,03,53,22.20
2015,07,03,03,54,22.20
2015,07,03,03,55,22.20
2015,07,03,03,56,22.20
2015,07,03,03,57,22.20
2015,07,03,03,58,22.20
2015,07,03,03,59,22.20
2015,07,03,04,00,22.10
2015,07,03,04,01,22.10
2015,07,03,04,02,22.10
2015,07,03,04,03,22.10
2015,07,03,04,04,22.20
2015,07,03,04,05,22.20
2015,07,03,04,06,22.20
2015,07,03,04,07,22.20
2015,07,03,04,08,22.30
2015,07,03,04,09,22.30
2015,07,03,04,10,22.30
2015,07,03,04,11,22.30
2015,07,03,04,12,22.30
2015,07,03,04,13,22.30
2015,07,03,04,14,22.30
2015,07,03,04,15,22.30
2015,07,03,04,16,22.30
2015,07,03,04,17,22.30
2015,07,03,04,18,22.30
2015,07,03,04,19,22.30
2015,07,03,04,20,22.30
2015,07,03,04,21,22.30
2015,07,03,04,22,22.20
2015,07,03,04,23,22.20
2015,07,03,04,24,22.20
2015,07,03,04,25,22.10
2015,07,03,04,26,22.00
2015,07,03,04,27,21.90
2015,07,03,04,28,21.80
2015,07,03,04,29,21.80
2015,07,03,04,30,21.80
2015,07,03,04,31,21.80
2015,07,03,04,32,21.70
2015,07,03,04,33,21.70
2015,07,03,04,34,21.70
2015,07,03,04,35,21.70
2015,07,03,04,36,21.70
2015,07,03,04,37,21.60
2015,07,03,04,38,21.60
2015,07,03,04,39,21.60
2015,07,03,04,40,21.70
2015,07,03,04,41,21.80
2015,07,03,04,42,21.80
2015,07,03,04,43,21.90
2015,07,03,04,44,21.90
2015,07,03,04,45,21.90
2015,07,03,04,46,21.90
2015,07,03,04,47,21.90
2015,07,03,04,48,22.00
2015,07,03,04,49,22.00
2015,07,03,04,50,22.00
2015,07,03,04,51,22.00
2015,07,03,04,52,22.00
2015,07,03,04,53,22.00
2015,07,03,04,54,21.90
2015,07,03,04,55,22.00
2015,07,03,04,56,21.90
2015,07,03,04,57,21.90
2015,07,03,04,58,21.90
2015,07,03,04,59,21.90
2015,07,03,05,00,21.80
2015,07,03,05,01,21.70
2015,07,03,05,02,21.60
2015,07,03,05,03,21.50
2015,07,03,05,04,21.40
2015,07,03,05,05,21.40
2015,07,03,05,06,21.30
2015,07,03,05,07,21.20
2015,07,03,05,08,21.10
2015,07,03,05,09,21.10
2015,07,03,05,10,21.00
2015,07,03,05,11,21.10
2015,07,03,05,12,21.10
2015,07,03,05,13,21.20
2015,07,03,05,14,21.30
2015,07,03,05,15,21.30
2015,07,03,05,16,21.40
2015,07,03,05,17,21.40
2015,07,03,05,18,21.50
2015,07,03,05,19,21.50
2015,07,03,05,20,21.60
2015,07,03,05,21,21.60
2015,07,03,05,22,21.60
2015,07,03,05,23,21.60
2015,07,03,05,24,21.60
2015,07,03,05,25,21.60
2015,07,03,05,26,21.60
2015,07,03,05,27,21.60
2015,07,03,05,28,21.50
2015,07,03,05,29,21.50
2015,07,03,05,30,21.50
2015,07,03,05,31,21.50
2015,07,03,05,32,21.40
2015,07,03,05,33,21.40
2015,07,03,05,34,21.40
2015,07,03,05,35,21.40
2015,07,03,05,36,21.30
2015,07,03,05,37,21.30
2015,07,03,05,38,21.20
2015,07,03,05,39,21.20
2015,07,03,05,40,21.10
2015,07,03,05,41,21.00
2015,07,03,05,42,21.00
2015,07,03,05,43,20.90
2015,07,03,05,44,20.80
2015,07,03,05,45,20.80
2015,07,03,05,46,20.70
2015,07,03,05,47,20.60
2015,07,03,05,48,20.60
2015,07,03,05,49,20.50
2015,07,03,05,50,20.50
2015,07,03,05,51,20.50
2015,07,03,05,52,20.40
2015,07,03,05,53,20.40
2015,07,03,05,54,20.40
2015,07,03,05,55,20.40
2015,07,03,05,56,20.40
2015,07,03,05,57,20.50
2015,07,03,05,58,20.60
2015,07,03,05,59,20.70
2015,07,03,06,00,20.70
2015,07,03,06,01,20.70
2015,07,03,06,02,20.80
2015,07,03,06,03,20.80
2015,07,03,06,04,20.90
2015,07,03,06,05,20.90
2015,07,03,06,06,20.90
2015,07,03,06,07,21.00
2015,07,03,06,08,21.00
2015,07,03,06,09,21.00
2015,07,03,06,10,21.10
2015,07,03,06,11,21.10
2015,07,03,06,12,21.10
2015,07,03,06,13,21.10
2015,07,03,06,14,21.10
2015,07,03,06,15,21.10
2015,07,03,06,16,21.10
2015,07,03,06,17,21.10
2015,07,03,06,18,21.10
2015,07,03,06,19,21.00
2015,07,03,06,20,21.00
2015,07,03,06,21,20.90
2015,07,03,06,22,20.90
2015,07,03,06,23,20.80
2015,07,03,06,24,20.80
2015,07,03,06,25,20.80
2015,07,03,06,26,20.70
2015,07,03,06,27,20.70
2015,07,03,06,28,20.70
2015,07,03,06,29,20.60
2015,07,03,06,30,20.60
2015,07,03,06,31,20.60
2015,07,03,06,32,20.60
2015,07,03,06,33,20.60
2015,07,03,06,34,20.60
2015,07,03,06,35,20.60
2015,07,03,06,36,20.60
2015,07,03,06,37,20.60
2015,07,03,06,38,20.60
2015,07,03,06,39,20.60
2015,07,03,06,40,20.60
2015,07,03,06,41,20.60
2015,07,03,06,42,20.70
2015,07,03,06,43,20.70
2015,07,03,06,44,20.80
2015,07,03,06,45,20.80
2015,07,03,06,46,20.90
2015,07,03,06,47,21.00
2015,07,03,06,48,21.10
2015,07,03,06,49,21.20
2015,07,03,06,50,21.20
2015,07,03,06,51,21.20
2015,07,03,06,52,21.20
2015,07,03,06,53,21.20
2015,07,03,06,54,21.10
2015,07,03,06,55,21.10
2015,07,03,06,56,21.10
2015,07,03,06,57,21.00
2015,07,03,06,58,21.00
2015,07,03,06,59,21.00
2015,07,03,07,00,20.90
2015,07,03,07,01,20.90
2015,07,03,07,02,20.90
2015,07,03,07,03,20.90
2015,07,03,07,04,20.90
2015,07,03,07,05,20.90
2015,07,03,07,06,20.90
2015,07,03,07,07,20.90
2015,07,03,07,08,21.00
2015,07,03,07,09,21.00
2015,07,03,07,10,21.10
2015,07,03,07,11,21.10
2015,07,03,07,12,21.20
2015,07,03,07,13,21.20
2015,07,03,07,14,21.30
2015,07,03,07,15,21.40
2015,07,03,07,16,21.50
2015,07,03,07,17,21.60
2015,07,03,07,18,21.60
2015,07,03,07,19,21.70
2015,07,03,07,20,21.80
2015,07,03,07,21,21.80
2015,07,03,07,22,21.80
2015,07,03,07,23,21.90
2015,07,03,07,24,21.90
2015,07,03,07,25,21.90
2015,07,03,07,26,22.00
2015,07,03,07,27,22.10
2015,07,03,07,28,22.10
2015,07,03,07,29,22.10
2015,07,03,07,30,22.20
2015,07,03,07,31,22.20
2015,07,03,07,32,22.20
2015,07,03,07,33,22.20
2015,07,03,07,34,22.30
2015,07,03,07,35,22.30
2015,07,03,07,36,22.30
2015,07,03,07,37,22.30
2015,07,03,07,38,22.30
2015,07,03,07,39,22.30
2015,07,03,07,40,22.20
2015,07,03,07,41,22.20
2015,07,03,07,42,22.20
2015,07,03,07,43,22.10
2015,07,03,07,44,22.10
2015,07,03,07,45,22.10
2015,07,03,07,46,22.20
2015,07,03,07,47,22.20
2015,07,03,07,48,22.10
2015,07,03,07,49,22.00
2015,07,03,07,50,21.90
2015,07,03,07,51,21.80
2015,07,03,07,52,21.80
2015,07,03,07,53,21.70
2015,07,03,07,54,21.60
2015,07,03,07,55,21.60
2015,07,03,07,56,21.50
2015,07,03,07,57,21.40
2015,07,03,07,58,21.40
2015,07,03,07,59,21.30
2015,07,03,08,00,21.30
2015,07,03,08,01,21.30
2015,07,03,08,02,21.30
2015,07,03,08,03,21.30
2015,07,03,08,04,21.30
2015,07,03,08,05,21.30
2015,07,03,08,06,21.30
2015,07,03,08,07,21.40
2015,07,03,08,08,21.50
2015,07,03,08,09,21.50
2015,07,03,08,10,21.50
2015,07,03,08,11,21.50
2015,07,03,08,12,21.50
2015,07,03,08,13,21.50
2015,07,03,08,14,21.50
2015,07,03,08,15,21.60
2015,07,03,08,16,21.60
2015,07,03,08,17,21.70
2015,07,03,08,18,21.80
2015,07,03,08,19,21.90
2015,07,03,08,20,21.90
2015,07,03,08,21,21.90
2015,07,03,08,22,22.00
2015,07,03,08,23,22.00
2015,07,03,08,24,22.10
2015,07,03,08,25,22.10
2015,07,03,08,26,22.20
2015,07,03,08,27,22.20
2015,07,03,08,28,22.30
2015,07,03,08,29,22.40
2015,07,03,08,30,22.50
2015,07,03,08,31,22.50
2015,07,03,08,32,22.60
2015,07,03,08,33,22.70
2015,07,03,08,34,22.70
2015,07,03,08,35,22.80
2015,07,03,08,36,22.90
2015,07,03,08,37,23.00
2015,07,03,08,38,23.10
2015,07,03,08,39,23.20
2015,07,03,08,40,23.20
2015,07,03,08,41,23.30
2015,07,03,08,42,23.30
2015,07,03,08,43,23.40
2015,07,03,08,44,23.50
2015,07,03,08,45,23.60
2015,07,03,08,46,23.70
2015,07,03,08,47,23.80
2015,07,03,08,48,23.80
2015,07,03,08,49,23.90
2015,07,03,08,50,23.90
2015,07,03,08,51,24.00
2015,07,03,08,52,24.00
2015,07,03,08,53,24.10
2015,07,03,08,54,24.10
2015,07,03,08,55,24.10
2015,07,03,08,56,24.20
2015,07,03,08,57,24.20
2015,07,03,08,58,24.20
2015,07,03,08,59,24.30
2015,07,03,09,00,24.30
2015,07,03,09,01,24.40
2015,07,03,09,02,24.40
2015,07,03,09,03,24.50
2015,07,03,09,04,24.50
2015,07,03,09,05,24.50
2015,07,03,09,06,24.50
2015,07,03,09,07,24.50
2015,07,03,09,08,24.50
2015,07,03,09,09,24.60
2015,07,03,09,10,24.60
2015,07,03,09,11,24.60
2015,07,03,09,12,24.60
2015,07,03,09,13,24.70
2015,07,03,09,14,24.60
2015,07,03,09,15,24.60
2015,07,03,09,16,24.60
2015,07,03,09,17,24.60
2015,07,03,09,18,24.60
2015,07,03,09,19,24.50
2015,07,03,09,20,24.50
2015,07,03,09,21,24.50
2015,07,03,09,22,24.50
2015,07,03,09,23,24.60
2015,07,03,09,24,24.60
2015,07,03,09,25,24.70
2015,07,03,09,26,24.70
2015,07,03,09,27,24.70
2015,07,03,09,28,24.80
2015,07,03,09,29,24.80
2015,07,03,09,30,24.80
2015,07,03,09,31,24.70
2015,07,03,09,32,24.70
2015,07,03,09,33,24.70
2015,07,03,09,34,24.60
2015,07,03,09,35,24.60
2015,07,03,09,36,24.60
2015,07,03,09,37,24.60
2015,07,03,09,38,24.60
2015,07,03,09,39,24.70
2015,07,03,09,40,24.70
2015,07,03,09,41,24.80
2015,07,03,09,42,24.80
2015,07,03,09,43,24.80
2015,07,03,09,44,24.80
2015,07,03,09,45,24.80
2015,07,03,09,46,24.80
2015,07,03,09,47,24.80
2015,07,03,09,48,24.90
2015,07,03,09,49,25.00
2015,07,03,09,50,25.00
2015,07,03,09,51,25.10
2015,07,03,09,52,25.10
2015,07,03,09,53,25.20
2015,07,03,09,54,25.20
2015,07,03,09,55,25.30
2015,07,03,09,56,25.30
2015,07,03,09,57,25.20
2015,07,03,09,58,25.20
2015,07,03,09,59,25.30
2015,07,03,10,00,25.30
2015,07,03,10,01,25.30
2015,07,03,10,02,25.30
2015,07,03,10,03,25.30
2015,07,03,10,04,25.40
2015,07,03,10,05,25.40
2015,07,03,10,06,25.50
2015,07,03,10,07,25.60
2015,07,03,10,08,25.50
2015,07,03,10,09,25.50
2015,07,03,10,10,25.50
2015,07,03,10,11,25.40
2015,07,03,10,12,25.30
2015,07,03,10,13,25.30
2015,07,03,10,14,25.20
2015,07,03,10,15,25.10
2015,07,03,10,16,25.10
2015,07,03,10,17,25.00
2015,07,03,10,18,24.90
2015,07,03,10,19,24.90
2015,07,03,10,20,24.80
2015,07,03,10,21,24.70
2015,07,03,10,22,24.60
2015,07,03,10,23,24.50
2015,07,03,10,24,24.40
2015,07,03,10,25,24.40
2015,07,03,10,26,24.40
2015,07,03,10,27,24.40
2015,07,03,10,28,24.40
2015,07,03,10,29,24.50
2015,07,03,10,30,24.50
2015,07,03,10,31,24.60
2015,07,03,10,32,24.60
2015,07,03,10,33,24.70
2015,07,03,10,34,24.70
2015,07,03,10,35,24.70
2015,07,03,10,36,24.80
2015,07,03,10,37,24.70
2015,07,03,10,38,24.80
2015,07,03,10,39,24.80
2015,07,03,10,40,24.80
2015,07,03,10,41,24.80
2015,07,03,10,42,24.80
2015,07,03,10,43,24.80
2015,07,03,10,44,25.00
2015,07,03,10,45,25.10
2015,07,03,10,46,25.10
2015,07,03,10,47,25.10
2015,07,03,10,48,25.20
2015,07,03,10,49,25.20
2015,07,03,10,50,25.20
2015,07,03,10,51,25.30
2015,07,03,10,52,25.30
2015,07,03,10,53,25.40
2015,07,03,10,54,25.30
2015,07,03,10,55,25.30
2015,07,03,10,56,25.30
2015,07,03,10,57,25.30
2015,07,03,10,58,25.30
2015,07,03,10,59,25.30
2015,07,03,11,00,25.30
2015,07,03,11,01,25.30
2015,07,03,11,02,25.40
2015,07,03,11,03,25.50
2015,07,03,11,04,25.60
2015,07,03,11,05,25.60
2015,07,03,11,06,25.60
2015,07,03,11,07,25.60
2015,07,03,11,08,25.60
2015,07,03,11,09,25.70
2015,07,03,11,10,25.80
2015,07,03,11,11,25.80
2015,07,03,11,12,25.90
2015,07,03,11,13,26.00
2015,07,03,11,14,26.10
2015,07,03,11,15,26.10
2015,07,03,11,16,26.10
2015,07,03,11,17,26.20
2015,07,03,11,18,26.30
2015,07,03,11,19,26.30
2015,07,03,11,20,26.30
2015,07,03,11,21,26.30
2015,07,03,11,22,26.30
2015,07,03,11,23,26.30
2015,07,03,11,24,26.30
2015,07,03,11,25,26.30
2015,07,03,11,26,26.30
2015,07,03,11,27,26.30
2015,07,03,11,28,26.20
2015,07,03,11,29,26.20
2015,07,03,11,30,26.20
2015,07,03,11,31,26.20
2015,07,03,11,32,26.10
2015,07,03,11,33,26.00
2015,07,03,11,34,26.00
2015,07,03,11,35,25.90
2015,07,03,11,36,25.90
2015,07,03,11,37,25.90
2015,07,03,11,38,25.90
2015,07,03,11,39,25.90
2015,07,03,11,40,25.90
2015,07,03,11,41,26.00
2015,07,03,11,42,26.00
2015,07,03,11,43,26.00
2015,07,03,11,44,26.00
2015,07,03,11,45,26.10
2015,07,03,11,46,26.20
2015,07,03,11,47,26.20
2015,07,03,11,48,26.20
2015,07,03,11,49,26.30
2015,07,03,11,50,26.30
2015,07,03,11,51,26.40
2015,07,03,11,52,26.50
2015,07,03,11,53,26.60
2015,07,03,11,54,26.70
2015,07,03,11,55,26.80
2015,07,03,11,56,26.80
2015,07,03,11,57,26.80
2015,07,03,11,58,26.80
2015,07,03,11,59,26.80
2015,07,03,12,00,26.80
2015,07,03,12,01,26.80
2015,07,03,12,02,26.80
2015,07,03,12,03,26.80
2015,07,03,12,04,26.70
2015,07,03,12,05,26.70
2015,07,03,12,06,26.70
2015,07,03,12,07,26.60
2015,07,03,12,08,26.50
2015,07,03,12,09,26.40
2015,07,03,12,10,26.50
2015,07,03,12,11,26.50
2015,07,03,12,12,26.50
2015,07,03,12,13,26.60
2015,07,03,12,14,26.60
2015,07,03,12,15,26.70
2015,07,03,12,16,26.80
2015,07,03,12,17,26.90
2015,07,03,12,18,27.00
2015,07,03,12,19,27.10
2015,07,03,12,20,27.10
2015,07,03,12,21,27.20
2015,07,03,12,22,27.20
2015,07,03,12,23,27.20
2015,07,03,12,24,27.20
2015,07,03,12,25,27.20
2015,07,03,12,26,27.30
2015,07,03,12,27,27.30
2015,07,03,12,28,27.40
2015,07,03,12,29,27.40
2015,07,03,12,30,27.40
2015,07,03,12,31,27.40
2015,07,03,12,32,27.40
2015,07,03,12,33,27.40
2015,07,03,12,34,27.50
2015,07,03,12,35,27.50
2015,07,03,12,36,27.40
2015,07,03,12,37,27.40
2015,07,03,12,38,27.30
2015,07,03,12,39,27.40
2015,07,03,12,40,27.40
2015,07,03,12,41,27.30
2015,07,03,12,42,27.30
2015,07,03,12,43,27.30
2015,07,03,12,44,27.20
2015,07,03,12,45,27.20
2015,07,03,12,46,27.20
2015,07,03,12,47,27.20
2015,07,03,12,48,27.20
2015,07,03,12,49,27.30
2015,07,03,12,50,27.40
2015,07,03,12,51,27.50
2015,07,03,12,52,27.60
2015,07,03,12,53,27.70
2015,07,03,12,54,27.60
2015,07,03,12,55,27.50
2015,07,03,12,56,27.40
2015,07,03,12,57,27.30
2015,07,03,12,58,27.20
2015,07,03,12,59,27.20
2015,07,03,13,00,27.20
2015,07,03,13,01,27.30
2015,07,03,13,02,27.30
2015,07,03,13,03,27.40
2015,07,03,13,04,27.40
2015,07,03,13,05,27.40
2015,07,03,13,06,27.40
2015,07,03,13,07,27.40
2015,07,03,13,08,27.50
2015,07,03,13,09,27.50
2015,07,03,13,10,27.60
2015,07,03,13,11,27.60
2015,07,03,13,12,27.60
2015,07,03,13,13,27.70
2015,07,03,13,14,27.70
2015,07,03,13,15,27.70
2015,07,03,13,16,27.70
2015,07,03,13,17,27.80
2015,07,03,13,18,27.80
2015,07,03,13,19,27.80
2015,07,03,13,20,27.70
2015,07,03,13,21,27.70
2015,07,03,13,22,27.80
2015,07,03,13,23,27.80
2015,07,03,13,24,27.90
2015,07,03,13,25,27.90
2015,07,03,13,26,27.90
2015,07,03,13,27,28.00
2015,07,03,13,28,28.00
2015,07,03,13,29,28.00
2015,07,03,13,30,28.10
2015,07,03,13,31,28.10
2015,07,03,13,32,28.10
2015,07,03,13,33,28.00
2015,07,03,13,34,27.90
2015,07,03,13,35,28.00
2015,07,03,13,36,28.10
2015,07,03,13,37,28.10
2015,07,03,13,38,28.10
2015,07,03,13,39,28.10
2015,07,03,13,40,28.10
2015,07,03,13,41,28.20
2015,07,03,13,42,28.30
2015,07,03,13,43,28.30
2015,07,03,13,44,28.40
2015,07,03,13,45,28.40
2015,07,03,13,46,28.50
2015,07,03,13,47,28.50
2015,07,03,13,48,28.60
2015,07,03,13,49,28.70
2015,07,03,13,50,28.70
2015,07,03,13,51,28.70
2015,07,03,13,52,28.70
2015,07,03,13,53,28.70
2015,07,03,13,54,28.60
2015,07,03,13,55,28.50
2015,07,03,13,56,28.50
2015,07,03,13,57,28.50
2015,07,03,13,58,28.60
2015,07,03,13,59,28.70
2015,07,03,14,00,28.70
2015,07,03,14,01,28.60
2015,07,03,14,02,28.60
2015,07,03,14,03,28.60
2015,07,03,14,04,28.60
2015,07,03,14,05,28.60
2015,07,03,14,06,28.60
2015,07,03,14,07,28.60
2015,07,03,14,08,28.60
2015,07,03,14,09,28.60
2015,07,03,14,10,28.70
2015,07,03,14,11,28.70
2015,07,03,14,12,28.60
2015,07,03,14,13,28.50
2015,07,03,14,14,28.40
2015,07,03,14,15,28.30
2015,07,03,14,16,28.30
2015,07,03,14,17,28.30
2015,07,03,14,18,28.30
2015,07,03,14,19,28.40
2015,07,03,14,20,28.40
2015,07,03,14,21,28.60
2015,07,03,14,22,28.60
2015,07,03,14,23,28.60
2015,07,03,14,24,28.70
2015,07,03,14,25,28.80
2015,07,03,14,26,28.90
2015,07,03,14,27,28.90
2015,07,03,14,28,29.00
2015,07,03,14,29,29.00
2015,07,03,14,30,29.10
2015,07,03,14,31,29.10
2015,07,03,14,32,29.00
2015,07,03,14,33,29.10
2015,07,03,14,34,29.20
2015,07,03,14,35,29.20
2015,07,03,14,36,29.30
2015,07,03,14,37,29.30
2015,07,03,14,38,29.30
2015,07,03,14,39,29.20
2015,07,03,14,40,29.20
2015,07,03,14,41,29.10
2015,07,03,14,42,29.10
2015,07,03,14,43,29.10
2015,07,03,14,44,29.10
2015,07,03,14,45,29.10
2015,07,03,14,46,29.10
2015,07,03,14,47,29.20
2015,07,03,14,48,29.20
2015,07,03,14,49,29.30
2015,07,03,14,50,29.30
2015,07,03,14,51,29.30
2015,07,03,14,52,29.30
2015,07,03,14,53,29.30
2015,07,03,14,54,29.30
2015,07,03,14,55,29.30
2015,07,03,14,56,29.30
2015,07,03,14,57,29.20
2015,07,03,14,58,29.20
2015,07,03,14,59,29.20
2015,07,03,15,00,29.30
2015,07,03,15,01,29.30
2015,07,03,15,02,29.40
2015,07,03,15,03,29.40
2015,07,03,15,04,29.40
2015,07,03,15,05,29.50
2015,07,03,15,06,29.50
2015,07,03,15,07,29.40
2015,07,03,15,08,29.40
2015,07,03,15,09,29.40
2015,07,03,15,10,29.30
2015,07,03,15,11,29.30
2015,07,03,15,12,29.30
2015,07,03,15,13,29.30
2015,07,03,15,14,29.40
2015,07,03,15,15,29.40
2015,07,03,15,16,29.40
2015,07,03,15,17,29.50
2015,07,03,15,18,29.50
2015,07,03,15,19,29.50
2015,07,03,15,20,29.50
2015,07,03,15,21,29.60
2015,07,03,15,22,29.60
2015,07,03,15,23,29.60
2015,07,03,15,24,29.50
2015,07,03,15,25,29.50
2015,07,03,15,26,29.50
2015,07,03,15,27,29.60
2015,07,03,15,28,29.50
2015,07,03,15,29,29.50
2015,07,03,15,30,29.40
2015,07,03,15,31,29.40
2015,07,03,15,32,29.40
2015,07,03,15,33,29.40
2015,07,03,15,34,29.40
2015,07,03,15,35,29.50
2015,07,03,15,36,29.60
2015,07,03,15,37,29.60
2015,07,03,15,38,29.70
2015,07,03,15,39,29.80
2015,07,03,15,40,29.80
2015,07,03,15,41,29.80
2015,07,03,15,42,29.80
2015,07,03,15,43,29.80
2015,07,03,15,44,29.80
2015,07,03,15,45,29.80
2015,07,03,15,46,29.70
2015,07,03,15,47,29.70
2015,07,03,15,48,29.60
2015,07,03,15,49,29.60
2015,07,03,15,50,29.60
2015,07,03,15,51,29.60
2015,07,03,15,52,29.60
2015,07,03,15,53,29.70
2015,07,03,15,54,29.70
2015,07,03,15,55,29.70
2015,07,03,15,56,29.70
2015,07,03,15,57,29.70
2015,07,03,15,58,29.80
2015,07,03,15,59,29.80
2015,07,03,16,00,29.80
2015,07,03,16,01,29.80
2015,07,03,16,02,29.70
2015,07,03,16,03,29.60
2015,07,03,16,04,29.60
2015,07,03,16,05,29.60
2015,07,03,16,06,29.60
2015,07,03,16,07,29.60
2015,07,03,16,08,29.70
2015,07,03,16,09,29.70
2015,07,03,16,10,29.80
2015,07,03,16,11,29.80
2015,07,03,16,12,29.80
2015,07,03,16,13,29.80
2015,07,03,16,14,29.70
2015,07,03,16,15,29.70
2015,07,03,16,16,29.60
2015,07,03,16,17,29.60
2015,07,03,16,18,29.60
2015,07,03,16,19,29.60
2015,07,03,16,20,29.60
2015,07,03,16,21,29.60
2015,07,03,16,22,29.60
2015,07,03,16,23,29.60
2015,07,03,16,24,29.70
2015,07,03,16,25,29.70
2015,07,03,16,26,29.80
2015,07,03,16,27,29.80
2015,07,03,16,28,29.80
2015,07,03,16,29,29.80
2015,07,03,16,30,29.80
2015,07,03,16,31,29.80
2015,07,03,16,32,29.90
2015,07,03,16,33,29.90
2015,07,03,16,34,29.90
2015,07,03,16,35,29.90
2015,07,03,16,36,29.90
2015,07,03,16,37,29.90
2015,07,03,16,38,29.90
2015,07,03,16,39,29.90
2015,07,03,16,40,29.90
2015,07,03,16,41,29.80
2015,07,03,16,42,29.90
2015,07,03,16,43,29.90
2015,07,03,16,44,30.00
2015,07,03,16,45,30.00
2015,07,03,16,46,30.10
2015,07,03,16,47,30.10
2015,07,03,16,48,30.20
2015,07,03,16,49,30.30
2015,07,03,16,50,30.30
2015,07,03,16,51,30.30
2015,07,03,16,52,30.30
2015,07,03,16,53,30.30
2015,07,03,16,54,30.30
2015,07,03,16,55,30.30
2015,07,03,16,56,30.30
2015,07,03,16,57,30.30
2015,07,03,16,58,30.30
2015,07,03,16,59,30.30
2015,07,03,17,00,30.30
2015,07,03,17,01,30.30
2015,07,03,17,02,30.40
2015,07,03,17,03,30.40
2015,07,03,17,04,30.40
2015,07,03,17,05,30.50
2015,07,03,17,06,30.50
2015,07,03,17,07,30.50
2015,07,03,17,08,30.50
2015,07,03,17,09,30.50
2015,07,03,17,10,30.50
2015,07,03,17,11,30.40
2015,07,03,17,12,30.40
2015,07,03,17,13,30.50
2015,07,03,17,14,30.50
2015,07,03,17,15,30.60
2015,07,03,17,16,30.60
2015,07,03,17,17,30.50
2015,07,03,17,18,30.40
2015,07,03,17,19,30.40